Time,TemperatureF,DewpointF,PressureIn,WindDirection,WindDirectionDegrees,WindSpeedMPH,WindSpeedGustMPH,Humidity,HourlyPrecipIn,Conditions,Clouds,dailyrainin,SoftwareType,DateUTC
2013-01-27 00:04:00,31.0,-99.9,30.43,NW,322,5.0,8.0,-999,-99.99,,,-99.99,,2013-01-27 05:04:00,
2013-01-27 00:12:00,31.0,-99.9,30.43,NW,311,6.0,10.0,-999,-99.99,,,-99.99,,2013-01-27 05:12:00,
2013-01-27 00:22:00,-999.0,-99.9,30.44,NW,309,7.0,9.0,-999,-99.99,,,-99.99,,2013-01-27 05:22:00,
2013-01-27 00:32:00,31.0,-99.9,30.45,WNW,299,5.0,9.0,-999,-99.99,,,-99.99,,2013-01-27 05:32:00,
2013-01-27 00:42:00,30.0,-99.9,30.45,WNW,298,6.0,7.0,-999,-99.99,,,-99.99,,2013-01-27 05:42:00,
2013-01-27 00:52:00,-999.0,-99.9,30.45,WNW,295,6.0,7.0,-999,-99.99,,,-99.99,,2013-01-27 05:52:00,
2013-01-27 01:02:00,30.0,-99.9,30.46,NW,309,7.0,8.0,-999,-99.99,,,-99.99,,2013-01-27 06:02:00,
2013-01-27 01:11:00,-999.0,-99.9,30.45,NW,312,5.0,6.0,-999,-99.99,,,-99.99,,2013-01-27 06:11:00,
2013-01-27 01:22:00,-999.0,-99.9,30.45,NW,320,5.0,6.0,-999,-99.99,,,-99.99,,2013-01-27 06:22:00,
2013-01-27 01:32:00,30.0,-99.9,30.45,NW,308,4.0,6.0,-999,-99.99,,,-99.99,,2013-01-27 06:32:00,
2013-01-27 01:42:00,30.0,-99.9,30.46,North,-999,-999.0,-999.0,-999,-99.99,,,-99.99,,2013-01-27 06:42:00,
2013-01-27 01:52:00,-999.0,-99.9,30.46,WNW,296,5.0,7.0,-999,-99.99,,,-99.99,,2013-01-27 06:52:00,
2013-01-27 02:02:00,30.0,-99.9,30.46,NW,317,5.0,9.0,-999,-99.99,,,-99.99,,2013-01-27 07:02:00,
2013-01-27 02:14:00,30.0,-99.9,30.47,WNW,303,6.0,11.0,-999,-99.99,,,-99.99,,2013-01-27 07:14:00,
2013-01-27 02:22:00,30.0,-99.9,30.47,North,-999,-999.0,-999.0,-999,-99.99,,,-99.99,,2013-01-27 07:22:00,
2013-01-27 02:32:00,30.0,-99.9,30.48,NW,319,7.0,9.0,-999,-99.99,,,-99.99,,2013-01-27 07:32:00,
2013-01-27 02:42:00,30.0,-99.9,30.47,North,-999,-999.0,-999.0,-999,-99.99,,,-99.99,,2013-01-27 07:42:00,
2013-01-27 02:52:00,-999.0,-99.9,30.47,NNW,337,6.0,9.0,-999,-99.99,,,-99.99,,2013-01-27 07:52:00,
2013-01-27 03:02:00,30.0,-99.9,30.47,WNW,295,6.0,10.0,-999,-99.99,,,-99.99,,2013-01-27 08:02:00,
2013-01-27 03:12:00,29.0,-99.9,30.47,North,-999,-999.0,-999.0,-999,-99.99,,,-99.99,,2013-01-27 08:12:00,
2013-01-27 03:22:00,30.0,-99.9,30.48,North,-999,-999.0,-999.0,-999,-99.99,,,-99.99,,2013-01-27 08:22:00,
2013-01-27 03:32:00,29.0,-99.9,30.48,NW,310,6.0,8.0,-999,-99.99,,,-99.99,,2013-01-27 08:32:00,
2013-01-27 03:42:00,29.0,-99.9,30.49,NW,319,7.0,9.0,-999,-99.99,,,-99.99,,2013-01-27 08:42:00,
2013-01-27 03:52:00,-999.0,-99.9,30.48,NW,315,5.0,11.0,-999,-99.99,,,-99.99,,2013-01-27 08:52:00,
2013-01-27 04:03:00,29.0,-99.9,30.48,NW,308,7.0,10.0,-999,-99.99,,,-99.99,,2013-01-27 09:03:00,
2013-01-27 04:11:00,29.0,-99.9,30.48,North,-999,-999.0,-999.0,-999,-99.99,,,-99.99,,2013-01-27 09:11:00,
2013-01-27 04:22:00,29.0,-99.9,30.49,North,-999,-999.0,-999.0,-999,-99.99,,,-99.99,,2013-01-27 09:22:00,
2013-01-27 04:32:00,29.0,-99.9,30.49,NW,314,7.0,10.0,-999,-99.99,,,-99.99,,2013-01-27 09:32:00,
2013-01-27 04:42:00,-999.0,-99.9,30.49,NW,313,7.0,9.0,-999,-99.99,,,-99.99,,2013-01-27 09:42:00,
2013-01-27 04:52:00,-999.0,-99.9,30.48,NW,310,6.0,9.0,-999,-99.99,,,-99.99,,2013-01-27 09:52:00,
2013-01-27 05:01:00,29.0,-99.9,30.48,NW,313,7.0,9.0,-999,-99.99,,,-99.99,,2013-01-27 10:01:00,
2013-01-27 05:11:00,29.0,-99.9,30.48,NW,308,6.0,8.0,-999,-99.99,,,-99.99,,2013-01-27 10:11:00,
2013-01-27 05:21:00,29.0,-99.9,30.49,North,-999,-999.0,-999.0,-999,-99.99,,,-99.99,,2013-01-27 10:21:00,
2013-01-27 05:32:00,29.0,-99.9,30.49,NW,311,8.0,9.0,-999,-99.99,,,-99.99,,2013-01-27 10:32:00,
2013-01-27 05:42:00,29.0,-99.9,30.49,NW,317,9.0,11.0,-999,-99.99,,,-99.99,,2013-01-27 10:42:00,
2013-01-27 05:52:00,30.0,-99.9,30.49,North,-999,-999.0,-999.0,-999,-99.99,,,-99.99,,2013-01-27 10:52:00,
2013-01-27 06:01:00,30.0,-99.9,30.49,NNW,328,5.0,11.0,-999,-99.99,,,-99.99,,2013-01-27 11:01:00,
2013-01-27 06:11:00,30.0,-99.9,30.50,North,-999,-999.0,-999.0,-999,-99.99,,,-99.99,,2013-01-27 11:11:00,
2013-01-27 06:22:00,-999.0,-99.9,30.50,NW,312,8.0,11.0,-999,-99.99,,,-99.99,,2013-01-27 11:22:00,
2013-01-27 06:32:00,29.0,-99.9,30.51,WNW,302,8.0,11.0,-999,-99.99,,,-99.99,,2013-01-27 11:32:00,
2013-01-27 06:42:00,29.0,-99.9,30.51,North,-999,-999.0,-999.0,-999,-99.99,,,-99.99,,2013-01-27 11:42:00,
2013-01-27 06:52:00,29.0,-99.9,30.51,North,-999,-999.0,-999.0,-999,-99.99,,,-99.99,,2013-01-27 11:52:00,
2013-01-27 07:03:00,29.0,-99.9,30.52,NW,320,8.0,13.0,-999,-99.99,,,-99.99,,2013-01-27 12:03:00,
2013-01-27 07:12:00,29.0,-99.9,30.53,NW,305,5.0,9.0,-999,-99.99,,,-99.99,,2013-01-27 12:12:00,
2013-01-27 07:22:00,-999.0,-99.9,30.53,NW,304,6.0,9.0,-999,-99.99,,,-99.99,,2013-01-27 12:22:00,
2013-01-27 07:33:00,29.0,-99.9,30.54,WNW,302,6.0,9.0,-999,-99.99,,,-99.99,,2013-01-27 12:33:00,
2013-01-27 07:42:00,-999.0,-99.9,30.54,NW,309,6.0,8.0,-999,-99.99,,,-99.99,,2013-01-27 12:42:00,
2013-01-27 07:52:00,-999.0,-99.9,30.54,NW,306,5.0,6.0,-999,-99.99,,,-99.99,,2013-01-27 12:52:00,
2013-01-27 08:02:00,28.0,-99.9,30.55,NW,309,6.0,7.0,-999,-99.99,,,-99.99,,2013-01-27 13:02:00,
2013-01-27 08:12:00,28.0,-99.9,30.55,North,-999,-999.0,-999.0,-999,-99.99,,,-99.99,,2013-01-27 13:12:00,
2013-01-27 08:22:00,-999.0,-99.9,30.56,NW,306,5.0,6.0,-999,-99.99,,,-99.99,,2013-01-27 13:22:00,
2013-01-27 08:32:00,28.0,-99.9,30.57,NW,306,4.0,6.0,-999,-99.99,,,-99.99,,2013-01-27 13:32:00,
2013-01-27 08:42:00,29.0,-99.9,30.57,WNW,298,4.0,6.0,-999,-99.99,,,-99.99,,2013-01-27 13:42:00,
2013-01-27 08:52:00,29.0,-99.9,30.57,North,-999,-999.0,-999.0,-999,-99.99,,,-99.99,,2013-01-27 13:52:00,
2013-01-27 09:02:00,29.0,-99.9,30.58,NW,305,5.0,7.0,-999,-99.99,,,-99.99,,2013-01-27 14:02:00,
2013-01-27 09:12:00,-999.0,-99.9,30.58,NW,311,6.0,8.0,-999,-99.99,,,-99.99,,2013-01-27 14:12:00,
2013-01-27 09:22:00,29.0,-99.9,30.59,North,-999,-999.0,-999.0,-999,-99.99,,,-99.99,,2013-01-27 14:22:00,
2013-01-27 09:33:00,30.0,-99.9,30.59,NW,309,6.0,8.0,-999,-99.99,,,-99.99,,2013-01-27 14:33:00,
2013-01-27 09:43:00,-999.0,-99.9,30.59,NNW,327,5.0,11.0,-999,-99.99,,,-99.99,,2013-01-27 14:43:00,
2013-01-27 09:53:00,-999.0,-99.9,30.60,North,5,4.0,7.0,-999,-99.99,,,-99.99,,2013-01-27 14:53:00,
2013-01-27 10:02:00,31.0,-99.9,30.60,North,10,3.0,7.0,-999,-99.99,,,-99.99,,2013-01-27 15:02:00,
2013-01-27 10:12:00,31.0,-99.9,30.60,North,354,5.0,9.0,-999,-99.99,,,-99.99,,2013-01-27 15:12:00,
2013-01-27 10:22:00,-999.0,-99.9,30.60,NNW,331,4.0,8.0,-999,-99.99,,,-99.99,,2013-01-27 15:22:00,
2013-01-27 10:33:00,31.0,-99.9,30.60,NW,319,8.0,9.0,-999,-99.99,,,-99.99,,2013-01-27 15:33:00,
2013-01-27 10:53:00,32.0,-99.9,30.60,North,-999,-999.0,-999.0,-999,-99.99,,,-99.99,,2013-01-27 15:53:00,
2013-01-27 11:03:00,33.0,-99.9,30.60,NE,39,2.0,6.0,-999,-99.99,,,-99.99,,2013-01-27 16:03:00,
2013-01-27 11:12:00,-999.0,-99.9,30.60,ENE,76,2.0,3.0,-999,-99.99,,,-99.99,,2013-01-27 16:12:00,
2013-01-27 11:22:00,32.0,-99.9,30.60,North,-999,-999.0,-999.0,-999,-99.99,,,-99.99,,2013-01-27 16:22:00,
2013-01-27 11:33:00,33.0,-99.9,30.60,SW,235,3.0,4.0,-999,-99.99,,,-99.99,,2013-01-27 16:33:00,
2013-01-27 11:42:00,33.0,-99.9,30.60,WSW,253,2.0,5.0,-999,-99.99,,,-99.99,,2013-01-27 16:42:00,
2013-01-27 11:53:00,33.0,-99.9,30.59,North,-999,-999.0,-999.0,-999,-99.99,,,-99.99,,2013-01-27 16:53:00,
2013-01-27 12:02:00,33.0,-99.9,30.59,SSW,192,5.0,5.0,-999,-99.99,,,-99.99,,2013-01-27 17:02:00,
2013-01-27 12:12:00,32.0,-99.9,30.58,SSE,163,4.0,5.0,-999,-99.99,,,-99.99,,2013-01-27 17:12:00,
2013-01-27 12:22:00,-999.0,-99.9,30.58,SSE,160,3.0,4.0,-999,-99.99,,,-99.99,,2013-01-27 17:22:00,
2013-01-27 12:33:00,33.0,-99.9,30.57,WNW,286,5.0,6.0,-999,-99.99,,,-99.99,,2013-01-27 17:33:00,
2013-01-27 12:42:00,33.0,-99.9,30.57,North,-999,-999.0,-999.0,-999,-99.99,,,-99.99,,2013-01-27 17:42:00,
2013-01-27 12:53:00,-999.0,-99.9,30.56,North,351,2.0,8.0,-999,-99.99,,,-99.99,,2013-01-27 17:53:00,
2013-01-27 13:03:00,33.0,-99.9,30.55,SE,144,5.0,9.0,-999,-99.99,,,-99.99,,2013-01-27 18:03:00,
2013-01-27 13:12:00,-999.0,-99.9,30.55,SE,126,2.0,4.0,-999,-99.99,,,-99.99,,2013-01-27 18:12:00,
2013-01-27 13:23:00,34.0,-99.9,30.55,North,-999,-999.0,-999.0,-999,-99.99,,,-99.99,,2013-01-27 18:23:00,
2013-01-27 13:32:00,34.0,-99.9,30.54,South,191,2.0,4.0,-999,-99.99,,,-99.99,,2013-01-27 18:32:00,
2013-01-27 13:42:00,34.0,-99.9,30.53,South,182,3.0,4.0,-999,-99.99,,,-99.99,,2013-01-27 18:42:00,
2013-01-27 13:53:00,-999.0,-99.9,30.53,South,176,4.0,6.0,-999,-99.99,,,-99.99,,2013-01-27 18:53:00,
2013-01-27 14:02:00,34.0,-99.9,30.53,South,171,6.0,9.0,-999,-99.99,,,-99.99,,2013-01-27 19:02:00,
2013-01-27 14:12:00,35.0,-99.9,30.53,North,-999,-999.0,-999.0,-999,-99.99,,,-99.99,,2013-01-27 19:12:00,
2013-01-27 14:22:00,-999.0,-99.9,30.53,SE,143,4.0,6.0,-999,-99.99,,,-99.99,,2013-01-27 19:22:00,
2013-01-27 14:33:00,35.0,-99.9,30.53,SSE,168,6.0,8.0,-999,-99.99,,,-99.99,,2013-01-27 19:33:00,
2013-01-27 14:42:00,-999.0,-99.9,30.53,SSE,168,4.0,5.0,-999,-99.99,,,-99.99,,2013-01-27 19:42:00,
2013-01-27 14:52:00,-999.0,-99.9,30.52,SSW,194,4.0,7.0,-999,-99.99,,,-99.99,,2013-01-27 19:52:00,
2013-01-27 15:03:00,36.0,-99.9,30.52,SE,139,2.0,4.0,-999,-99.99,,,-99.99,,2013-01-27 20:03:00,
2013-01-27 15:12:00,36.0,-99.9,30.52,SE,143,3.0,4.0,-999,-99.99,,,-99.99,,2013-01-27 20:12:00,
2013-01-27 15:22:00,-999.0,-99.9,30.52,SSE,165,4.0,5.0,-999,-99.99,,,-99.99,,2013-01-27 20:22:00,
2013-01-27 15:33:00,36.0,-99.9,30.51,South,176,6.0,6.0,-999,-99.99,,,-99.99,,2013-01-27 20:33:00,
2013-01-27 15:43:00,36.0,-99.9,30.51,South,172,5.0,6.0,-999,-99.99,,,-99.99,,2013-01-27 20:43:00,
2013-01-27 15:52:00,36.0,-99.9,30.51,North,-999,-999.0,-999.0,-999,-99.99,,,-99.99,,2013-01-27 20:52:00,
2013-01-27 16:02:00,38.0,-99.9,30.50,SSE,147,1.0,4.0,-999,-99.99,,,-99.99,,2013-01-27 21:02:00,
2013-01-27 16:12:00,-999.0,-99.9,30.50,SE,140,2.0,4.0,-999,-99.99,,,-99.99,,2013-01-27 21:12:00,
2013-01-27 16:23:00,-999.0,-99.9,30.51,South,172,5.0,6.0,-999,-99.99,,,-99.99,,2013-01-27 21:23:00,
2013-01-27 16:33:00,37.0,-99.9,30.51,SSE,165,5.0,6.0,-999,-99.99,,,-99.99,,2013-01-27 21:33:00,
2013-01-27 16:43:00,37.0,-99.9,30.51,North,-999,-999.0,-999.0,-999,-99.99,,,-99.99,,2013-01-27 21:43:00,
2013-01-27 16:52:00,-999.0,-99.9,30.51,SSW,194,4.0,9.0,-999,-99.99,,,-99.99,,2013-01-27 21:52:00,
2013-01-27 17:03:00,36.0,-99.9,30.51,South,181,7.0,7.0,-999,-99.99,,,-99.99,,2013-01-27 22:03:00,
2013-01-27 17:12:00,36.0,-99.9,30.51,South,186,8.0,9.0,-999,-99.99,,,-99.99,,2013-01-27 22:12:00,
2013-01-27 17:22:00,-999.0,-99.9,30.51,SSE,164,7.0,9.0,-999,-99.99,,,-99.99,,2013-01-27 22:22:00,
2013-01-27 17:33:00,36.0,-99.9,30.51,SSE,167,6.0,9.0,-999,-99.99,,,-99.99,,2013-01-27 22:33:00,
2013-01-27 17:42:00,36.0,-99.9,30.51,North,-999,-999.0,-999.0,-999,-99.99,,,-99.99,,2013-01-27 22:42:00,
2013-01-27 17:52:00,-999.0,-99.9,30.51,SSE,165,7.0,8.0,-999,-99.99,,,-99.99,,2013-01-27 22:52:00,
2013-01-27 18:02:00,36.0,-99.9,30.51,SSE,167,7.0,9.0,-999,-99.99,,,-99.99,,2013-01-27 23:02:00,
2013-01-27 18:12:00,-999.0,-99.9,30.51,SSE,160,6.0,8.0,-999,-99.99,,,-99.99,,2013-01-27 23:12:00,
2013-01-27 18:22:00,36.0,-99.9,30.52,North,-999,-999.0,-999.0,-999,-99.99,,,-99.99,,2013-01-27 23:22:00,
2013-01-27 18:32:00,35.0,-99.9,30.52,South,184,5.0,7.0,-999,-99.99,,,-99.99,,2013-01-27 23:32:00,
2013-01-27 18:42:00,35.0,-99.9,30.52,South,173,5.0,6.0,-999,-99.99,,,-99.99,,2013-01-27 23:42:00,
2013-01-27 18:53:00,35.0,-99.9,30.52,North,-999,-999.0,-999.0,-999,-99.99,,,-99.99,,2013-01-27 23:53:00,
2013-01-27 19:02:00,35.0,-99.9,30.52,South,187,4.0,4.0,-999,-99.99,,,-99.99,,2013-01-28 00:02:00,
2013-01-27 19:12:00,-999.0,-99.9,30.53,South,187,3.0,3.0,-999,-99.99,,,-99.99,,2013-01-28 00:12:00,
2013-01-27 19:22:00,34.0,-99.9,30.53,North,-999,-999.0,-999.0,-999,-99.99,,,-99.99,,2013-01-28 00:22:00,
2013-01-27 19:33:00,34.0,-99.9,30.53,SSE,152,3.0,4.0,-999,-99.99,,,-99.99,,2013-01-28 00:33:00,
2013-01-27 19:42:00,-999.0,-99.9,30.52,SSE,163,4.0,4.0,-999,-99.99,,,-99.99,,2013-01-28 00:42:00,
2013-01-27 19:52:00,34.0,-99.9,30.52,North,-999,-999.0,-999.0,-999,-99.99,,,-99.99,,2013-01-28 00:52:00,
2013-01-27 20:02:00,34.0,-99.9,30.51,SSE,166,3.0,4.0,-999,-99.99,,,-99.99,,2013-01-28 01:02:00,
2013-01-27 20:12:00,35.0,-99.9,30.52,SSE,160,2.0,4.0,-999,-99.99,,,-99.99,,2013-01-28 01:12:00,
2013-01-27 20:22:00,-999.0,-99.9,30.52,SSE,165,1.0,2.0,-999,-99.99,,,-99.99,,2013-01-28 01:22:00,
2013-01-27 20:33:00,34.0,-99.9,30.51,SSE,151,3.0,4.0,-999,-99.99,,,-99.99,,2013-01-28 01:33:00,
2013-01-27 20:43:00,-999.0,-99.9,30.51,SE,142,4.0,5.0,-999,-99.99,,,-99.99,,2013-01-28 01:43:00,
2013-01-27 20:52:00,-999.0,-99.9,30.50,SE,141,3.0,5.0,-999,-99.99,,,-99.99,,2013-01-28 01:52:00,
2013-01-27 21:02:00,34.0,-99.9,30.50,SE,145,1.0,4.0,-999,-99.99,,,-99.99,,2013-01-28 02:02:00,
2013-01-27 21:12:00,34.0,-99.9,30.50,North,-999,-999.0,-999.0,-999,-99.99,,,-99.99,,2013-01-28 02:12:00,
2013-01-27 21:22:00,34.0,-99.9,30.51,North,-999,-999.0,-999.0,-999,-99.99,,,-99.99,,2013-01-28 02:22:00,
2013-01-27 21:32:00,33.0,-99.9,30.52,SE,139,0.0,2.0,-999,-99.99,,,-99.99,,2013-01-28 02:32:00,
2013-01-27 21:42:00,33.0,-99.9,30.53,SW,231,1.0,2.0,-999,-99.99,,,-99.99,,2013-01-28 02:42:00,
2013-01-27 21:53:00,-999.0,-99.9,30.53,SW,225,2.0,3.0,-999,-99.99,,,-99.99,,2013-01-28 02:53:00,
2013-01-27 22:02:00,31.0,-99.9,30.52,South,169,5.0,5.0,-999,-99.99,,,-99.99,,2013-01-28 03:02:00,
2013-01-27 22:12:00,32.0,-99.9,30.52,North,-999,-999.0,-999.0,-999,-99.99,,,-99.99,,2013-01-28 03:12:00,
2013-01-27 22:22:00,33.0,-99.9,30.51,North,-999,-999.0,-999.0,-999,-99.99,,,-99.99,,2013-01-28 03:22:00,
2013-01-27 22:32:00,33.0,-99.9,30.51,South,179,4.0,6.0,-999,-99.99,,,-99.99,,2013-01-28 03:32:00,
2013-01-27 22:42:00,33.0,-99.9,30.51,North,-999,-999.0,-999.0,-999,-99.99,,,-99.99,,2013-01-28 03:42:00,
2013-01-27 22:53:00,-999.0,-99.9,30.50,SE,142,4.0,5.0,-999,-99.99,,,-99.99,,2013-01-28 03:53:00,
2013-01-27 23:02:00,33.0,-99.9,30.50,SSE,150,4.0,5.0,-999,-99.99,,,-99.99,,2013-01-28 04:02:00,
2013-01-27 23:12:00,33.0,-99.9,30.50,North,-999,-999.0,-999.0,-999,-99.99,,,-99.99,,2013-01-28 04:12:00,
2013-01-27 23:22:00,-999.0,-99.9,30.50,South,170,5.0,6.0,-999,-99.99,,,-99.99,,2013-01-28 04:22:00,
2013-01-27 23:32:00,33.0,-99.9,30.50,SSE,164,5.0,7.0,-999,-99.99,,,-99.99,,2013-01-28 04:32:00,
2013-01-27 23:42:00,33.0,-99.9,30.51,SSW,193,4.0,6.0,-999,-99.99,,,-99.99,,2013-01-28 04:42:00,
2013-01-27 23:52:00,33.0,-99.9,30.51,North,-999,-999.0,-999.0,-999,-99.99,,,-99.99,,2013-01-28 04:52:00,